Погода в Верхних Полянах

Россия / Пензенская область     52°53′48″N   43°32′06″E
темп.,
°C
ветер,
м/с
пор.,
м/с
влажн.,
%
обл.,
%
осадки,
мм/ч
давл.,
гПа
погр.,
м
6 марта, сб
сб600:00−11з239426 0.0 101421
03:00−11з239660 0.0 101621
06:00−12сз129798 0.0 101621
09:00−9св019399 0.0 101634
12:00−6ююз0086100 0.0 1016237
15:00−5всв0185100 0.0 1014314
18:00−8ссз2296100 0.1 101423
21:00−10сз339299 0.6 101429
7 марта, вс
вс700:00−12сз349783 0.1 101479
03:00−15зсз349776 0.1 101536
06:00−16зюз349943 0.0 101551
09:00−12юз5109561 0.0 1014276
12:00−8юз8138799 0.0 1011727
15:00−5юз101691100 0.2 10061036
18:00−5юз101989100 0.9 10021224
21:00−3юз101795100 2.2 10001068
8 марта, пн
пн800:00−5сз71187100 1.8 999540
03:00−10зюз448799 1.8 100065
06:00−11юз512890 0.0 1000259
09:00−7зюз7139150 0.1 1001777
12:00−5зюз91392100 0.2 10011208
15:00−6з91380100 0.6 10031354
18:00−10з5138863 0.1 1006410
21:00−11з5119368 0.1 1009255
9 марта, вт
вт900:00−13з499659 0.0 1010195
03:00−15з349979 0.1 101266
06:00−17зсз239999 0.0 101420
09:00−14зсз2397100 0.1 1015111
12:00−11сз238897 0.0 1015381
15:00−10ссз238698 0.1 1015504
18:00−13ссз3394100 0.0 101645
21:00−16ссз239696 0.1 101823
10 марта, ср
ср1000:00−16с3696100 0.0 1019115
03:00−20с349983 0.0 102131
06:00−23ссз3410030 0.0 102243
09:00−21ссз479650 0.0 1024234
12:00−18ссз359143 0.0 1025378
15:00−17сз359060 0.0 1025360
18:00−19зсз229488 0.0 102520
21:00−20ююз019593 0.0 102620